Terminal Aerodrome Forecast
Issued by NWS Honolulu, HI

Home | Current Version | Previous Version | Text Only | Print | Product List | Glossary On
Versions: 1 2 3 4 5 6 7 8 9 10 11 12 13 14 15 16 17 18 19 20 21 22 23 24 25 26 27 28 29 30 31 32 33 34 35 36 37 38 39 40 41 42 43 44 45 46 47 48 49 50
000
FTPA31 PHFO 112341
TAFHNL
TAF
PHNL 112341Z 1200/1306 21010KT P6SM FEW020 SCT040
     FM120500 22006KT P6SM FEW025 SCT045
     FM130300 33010KT 4SM SHRA BR BKN025 OVC035=

USA.gov is the U.S. government's official web portal to all federal, state and local government web resources and services.